GW4906 Weather Reports


time (UTC)temp
C
wind
direction
speed
KPH
gust
KPH
rain 1hr
cm
rain 24hr
cm
rain mn
cm
humidity
%
barometer
mb
20260906231544 17 205 4.8 9.7 0.00 0.00 0.00 78 1017.5
20260906231017 16 255 3.2 16.1 0.00 0.00 0.00 81 1017.4
20260906230519 16 237 8.0 16.1 0.00 0.00 0.00 81 1017.4
20260906230057 15 269 4.8 11.3 0.00 0.00 0.00 83 1017.5
20260906225519 16 205 6.4 11.3 0.00 0.00 0.00 81 1017.5
20260906225020 15 278 3.2 11.3 0.00 0.00 0.00 84 1017.4
20260906224539 15 283 3.2 14.5 0.00 0.00 0.00 85 1017.5
20260906224019 15 288 8.0 14.5 0.00 0.00 0.00 85 1017.6
20260906223517 14 243 6.4 12.9 0.00 0.00 0.00 84 1017.5
20260906223053 14 283 8.0 12.9 0.00 0.00 0.00 85 1017.6
20260906222518 14 269 6.4 17.7 0.00 0.00 0.00 85 1017.4
20260906222018 14 266 9.7 17.7 0.00 0.00 0.00 87 1017.5
20260906221543 14 273 8.0 14.5 0.00 0.00 0.00 88 1017.5
20260906221023 13 267 11.3 14.5 0.00 0.00 0.00 87 1017.6
20260906220518 13 291 9.7 14.5 0.00 0.00 0.00 87 1017.6
20260906220041 13 277 9.7 14.5 0.00 0.00 0.00 89 1017.7
20260906215519 13 269 3.2 11.3 0.00 0.00 0.00 90 1017.7
20260906215017 13 279 4.8 14.5 0.00 0.00 0.00 91 1017.7
20260906214559 13 264 3.2 12.9 0.00 0.00 0.00 91 1017.7
20260906214018 13 281 6.4 14.5 0.00 0.00 0.00 92 1017.7
20260906213519 12 284 9.7 14.5 0.00 0.00 0.00 92 1017.6
20260906213043 12 276 6.4 12.9 0.00 0.00 0.00 92 1017.7
20260906212515 12 284 6.4 16.1 0.00 0.00 0.00 92 1017.8
20260906212018 12 270 12.9 16.1 0.00 0.00 0.00 91 1017.8
20260906211552 12 272 9.7 14.5 0.00 0.00 0.00 92 1017.8
20260906211019 12 271 8.0 14.5 0.00 0.00 0.00 91 1017.8
20260906210520 12 288 8.0 16.1 0.00 0.00 0.00 92 1017.8
20260906210049 12 271 9.7 16.1 0.00 0.00 0.00 90 1017.8
20260906205517 12 286 8.0 16.1 0.00 0.00 0.00 91 1017.9
20260906205017 13 277 8.0 14.5 0.00 0.00 0.00 90 1017.9
20260906204548 13 264 9.7 14.5 0.00 0.00 0.00 91 1017.8
20260906204018 13 279 6.4 14.5 0.00 0.00 0.00 91 1017.8
20260906203518 13 268 9.7 14.5 0.00 0.00 0.00 90 1017.7
20260906203053 13 263 6.4 14.5 0.00 0.00 0.00 90 1017.8
20260906202519 13 272 6.4 14.5 0.00 0.00 0.00 90 1017.7
20260906202018 13 286 4.8 12.9 0.00 0.00 0.00 91 1017.8
20260906201550 13 226 3.2 11.3 0.00 0.00 0.00 90 1017.8
20260906201021 13 195 1.6 12.9 0.00 0.00 0.00 90 1017.9
20260906200520 12 171 4.8 12.9 0.00 0.00 0.00 90 1017.9
20260906200048 13 175 4.8 11.3 0.00 0.00 0.00 90 1018.0
20260906195515 12 209 6.4 11.3 0.00 0.00 0.00 90 1018.1
20260906195016 13 188 6.4 12.9 0.00 0.00 0.00 91 1018.0
20260906194555 13 202 4.8 12.9 0.00 0.00 0.00 90 1018.1
20260906193518 13 203 3.2 9.7 0.00 0.00 0.00 91 1018.0
20260906193050 13 190 3.2 11.3 0.00 0.00 0.00 91 1018.0
20260906192519 12 196 6.4 11.3 0.00 0.00 0.00 89 1018.2
20260906192019 13 198 3.2 9.7 0.00 0.00 0.00 91 1018.1
20260906191605 13 192 1.6 9.7 0.00 0.00 0.00 91 1018.1
20260906191020 13 192 4.8 9.7 0.00 0.00 0.00 89 1018.1
20260906190518 13 217 3.2 9.7 0.00 0.00 0.00 90 1018.2
20260906190059 13 186 3.2 9.7 0.00 0.00 0.00 90 1018.2
20260906185517 13 211 3.2 8.0 0.00 0.00 0.00 90 1018.2
20260906185019 12 216 3.2 8.0 0.00 0.00 0.00 91 1018.2
20260906184601 12 216 3.2 8.0 0.00 0.00 0.00 91 1018.2
20260906183517 12 200 4.8 9.7 0.00 0.00 0.00 91 1018.0
20260906183102 12 177 4.8 9.7 0.00 0.00 0.00 91 1018.2
20260906182519 12 190 4.8 14.5 0.00 0.00 0.00 91 1018.2
20260906182020 12 195 8.0 14.5 0.00 0.00 0.00 90 1018.4
20260906181552 12 207 8.0 14.5 0.00 0.00 0.00 91 1018.3
20260906181021 12 198 8.0 14.5 0.00 0.00 0.00 91 1018.1
20260906180519 12 174 8.0 14.5 0.00 0.00 0.00 90 1018.2
20260906180108 12 170 6.4 12.9 0.00 0.00 0.00 91 1018.3
20260906175517 13 198 8.0 12.9 0.00 0.00 0.00 90 1018.3
20260906175017 13 159 4.8 9.7 0.00 0.00 0.00 93 1018.1
20260906174557 12 195 3.2 8.0 0.00 0.00 0.00 94 1018.3
20260906174017 12 162 4.8 9.7 0.00 0.00 0.00 95 1018.4
20260906173055 12 117 3.2 9.7 0.00 0.00 0.00 97 1018.3
20260906172019 11 143 0.0 6.4 0.00 0.00 0.00 97 1018.4
20260906171557 11 160 0.0 6.4 0.00 0.00 0.00 97 1018.3
20260906171018 11 160 0.0 3.2 0.00 0.00 0.00 98 1018.4
20260906170519 11 160 0.0 3.2 0.00 0.00 0.00 98 1018.4
20260906170057 11 160 0.0 3.2 0.00 0.00 0.00 98 1018.3
20260906165519 11 159 0.0 3.2 0.00 0.00 0.00 98 1018.3
20260906165017 11 160 0.0 8.0 0.00 0.00 0.00 98 1018.3
20260906164600 11 160 3.2 8.0 0.00 0.00 0.00 98 1018.4
20260906163116 11 169 6.4 9.7 0.00 0.00 0.00 98 1018.3
20260906162018 11 144 3.2 11.3 0.00 0.00 0.00 98 1018.4
20260906161605 11 148 4.8 11.3 0.00 0.00 0.00 98 1018.3
20260906161019 11 146 1.6 9.7 0.00 0.00 0.00 98 1018.3
20260906160517 11 157 1.6 12.9 0.00 0.00 0.00 98 1018.2
20260906154552 11 125 6.4 17.7 0.00 0.00 0.00 98 1018.1
20260906153522 11 155 4.8 12.9 0.00 0.00 0.00 98 1018.0
20260906153053 11 154 4.8 16.1 0.00 0.00 0.00 98 1018.0
20260906152523 10 151 8.0 16.1 0.00 0.00 0.00 98 1017.9
20260906152017 10 180 9.7 16.1 0.00 0.00 0.00 98 1017.8
20260906151609 10 153 6.4 14.5 0.00 0.00 0.00 98 1017.8
20260906151017 10 203 6.4 14.5 0.00 0.00 0.00 98 1017.9
20260906150518 10 169 6.4 14.5 0.00 0.00 0.00 98 1017.9
20260906150057 10 155 8.0 16.1 0.00 0.00 0.00 98 1017.7
20260906145018 10 155 3.2 12.9 0.00 0.00 0.00 98 1018.0
20260906144555 10 175 4.8 12.9 0.00 0.00 0.00 98 1018.0
20260906143055 10 171 1.6 8.0 0.00 0.00 0.00 98 1018.0
20260906142517 10 171 4.8 8.0 0.00 0.00 0.00 98 1017.8
20260906142021 10 163 1.6 11.3 0.00 0.00 0.00 98 1017.7
20260906141604 10 196 3.2 16.1 0.00 0.00 0.00 97 1017.7
20260906141023 10 186 9.7 16.1 0.00 0.00 0.00 97 1017.7
20260906140524 10 182 4.8 11.3 0.00 0.00 0.00 97 1017.7
20260906140106 10 183 8.0 11.3 0.00 0.00 0.00 97 1017.7
20260906135518 10 156 6.4 11.3 0.00 0.00 0.00 97 1017.6
20260906135017 10 150 6.4 11.3 0.00 0.00 0.00 97 1017.6
20260906134554 10 149 4.8 11.3 0.00 0.00 0.00 97 1017.7
20260906134019 10 120 0.0 4.8 0.00 0.00 0.00 97 1017.8
20260906133119 10 112 0.0 6.4 0.00 0.00 0.00 97 1017.8
20260906132518 10 119 3.2 6.4 0.00 0.00 0.00 97 1017.7
20260906132020 10 119 1.6 3.2 0.00 0.00 0.00 97 1017.7
20260906131615 10 119 1.6 4.8 0.00 0.00 0.00 97 1017.6
20260906131020 11 119 1.6 4.8 0.00 0.00 0.00 97 1017.6
20260906130518 11 80 1.6 4.8 0.00 0.00 0.00 97 1017.7
20260906130112 11 74 0.0 3.2 0.00 0.00 0.00 98 1017.8
20260906125520 11 67 0.0 1.6 0.00 0.00 0.00 98 1017.7
20260906125019 11 67 0.0 1.6 0.00 0.00 0.00 97 1017.7
20260906124556 11 65 0.0 0.0 0.00 0.00 0.00 97 1017.7
20260906124017 11 65 0.0 0.0 0.00 0.00 0.00 97 1017.7
20260906123518 11 65 0.0 1.6 0.00 0.00 0.00 97 1017.7
20260906123102 11 65 0.0 3.2 0.00 0.00 0.00 97 1017.6
20260906122019 11 74 1.6 6.4 0.00 0.00 0.00 97 1017.6
20260906121559 11 68 0.0 4.8 0.00 0.00 0.00 97 1017.6
20260906120518 11 82 0.0 9.7 0.00 0.00 0.00 97 1017.5
20260906120101 11 82 1.6 9.7 0.00 0.00 0.00 97 1017.3
20260906115520 11 86 4.8 9.7 0.00 0.00 0.00 97 1017.2
20260906115019 11 113 4.8 8.0 0.00 0.00 0.00 97 1017.2
20260906114554 11 127 3.2 6.4 0.00 0.00 0.00 97 1017.2
20260906113052 10 130 3.2 9.7 0.00 0.00 0.00 97 1017.2
20260906112019 10 141 4.8 8.0 0.00 0.00 0.00 97 1017.2
20260906111551 10 147 3.2 6.4 0.00 0.00 0.00 96 1017.1
20260906111019 11 147 3.2 8.0 0.00 0.00 0.00 96 1017.1
20260906110517 11 136 6.4 8.0 0.00 0.00 0.00 96 1017.0
20260906110056 11 120 4.8 9.7 0.00 0.00 0.00 96 1017.0
20260906105516 10 112 4.8 12.9 0.00 0.00 0.00 96 1017.0
20260906104555 10 101 9.7 12.9 0.00 0.00 0.00 95 1016.9
20260906103053 11 83 6.4 12.9 0.00 0.00 0.00 93 1017.0
20260906102520 11 100 9.7 12.9 0.00 0.00 0.00 94 1017.1
20260906101556 11 98 11.3 12.9 0.00 0.00 0.00 92 1016.9
20260906101019 11 93 11.3 12.9 0.00 0.00 0.00 92 1016.8
20260906100523 12 86 4.8 14.5 0.00 0.00 0.00 92 1016.9
20260906100106 12 53 4.8 14.5 0.00 0.00 0.00 92 1017.1
20260906095520 12 23 8.0 14.5 0.00 0.00 0.00 91 1017.1
20260906094557 12 15 3.2 6.4 0.00 0.00 0.00 84 1017.1
20260906093057 13 77 1.6 12.9 0.00 0.00 0.00 82 1017.0
20260906092523 13 113 6.4 16.1 0.00 0.00 0.00 83 1016.8
20260906092019 13 111 11.3 16.1 0.00 0.00 0.00 83 1016.7
20260906091606 13 116 9.7 14.5 0.00 0.00 0.00 83 1016.6
20260906090125 13 125 8.0 12.9 0.00 0.00 0.00 80 1016.8
20260906085020 14 130 6.4 8.0 0.00 0.00 0.00 77 1016.7
20260906084559 14 124 4.8 6.4 0.00 0.00 0.00 76 1016.8
20260906083519 14 128 0.0 0.0 0.00 0.00 0.00 75 1016.8
20260906083100 15 26 0.0 0.0 0.00 0.00 0.00 74 1016.7
20260906082520 15 26 0.0 0.0 0.00 0.00 0.00 71 1016.7
20260906081601 15 26 0.0 1.6 0.00 0.00 0.00 71 1016.7
20260906075520 16 26 1.6 6.4 0.00 0.00 0.00 66 1016.7
20260906075019 16 26 1.6 6.4 0.00 0.00 0.00 66 1016.7
20260906074622 16 34 1.6 4.8 0.00 0.00 0.00 66 1016.6
20260906073103 16 32 1.6 6.4 0.00 0.00 0.00 64 1016.5
20260906071602 16 51 0.0 3.2 0.00 0.00 0.00 66 1016.5
20260906070126 16 325 0.0 0.0 0.00 0.00 0.00 64 1016.5
20260906064618 16 325 0.0 0.0 0.00 0.00 0.00 63 1016.5
20260906063103 16 325 0.0 0.0 0.00 0.00 0.00 58 1016.5
20260906061602 16 325 0.0 0.0 0.00 0.00 0.00 59 1016.4
20260906061019 16 325 0.0 1.6 0.00 0.00 0.00 58 1016.4
20260906060521 16 325 0.0 3.2 0.00 0.00 0.00 58 1016.4
20260906060129 16 325 1.6 4.8 0.00 0.00 0.00 58 1016.4
20260906054621 16 325 3.2 4.8 0.00 0.00 0.00 56 1016.6
20260906053106 17 51 0.0 0.0 0.00 0.00 0.00 58 1016.5
20260906051620 17 51 0.0 0.0 0.00 0.00 0.00 56 1016.2
20260906051019 17 51 0.0 0.0 0.00 0.00 0.00 58 1016.4
20260906050519 18 51 0.0 0.0 0.00 0.00 0.00 59 1016.3
20260906050104 18 51 0.0 0.0 0.00 0.00 0.00 53 1016.3
20260906044535 18 51 0.0 0.0 0.00 0.00 0.00 53 1016.3
20260906044019 17 51 0.0 3.2 0.00 0.00 0.00 54 1016.3
20260906043516 17 51 0.0 4.8 0.00 0.00 0.00 55 1016.3
20260906043038 17 51 0.0 4.8 0.00 0.00 0.00 56 1016.5
20260906042520 17 49 0.0 3.2 0.00 0.00 0.00 56 1016.5
20260906042019 17 50 0.0 8.0 0.00 0.00 0.00 58 1016.5
20260906041545 17 50 0.0 8.0 0.00 0.00 0.00 58 1016.5
20260906041019 17 49 1.6 6.4 0.00 0.00 0.00 59 1016.5
20260906040518 17 44 1.6 8.0 0.00 0.00 0.00 61 1016.6
20260906040046 17 24 3.2 8.0 0.00 0.00 0.00 59 1016.5
20260906035519 17 27 3.2 8.0 0.00 0.00 0.00 65 1016.7
20260906035018 17 51 1.6 8.0 0.00 0.00 0.00 67 1016.5
20260906034019 17 105 3.2 9.7 0.00 0.00 0.00 67 1016.6
20260906033519 17 183 0.0 0.0 0.00 0.00 0.00 67 1016.7
20260906033041 17 183 0.0 0.0 0.00 0.00 0.00 64 1016.6
20260906032517 17 183 0.0 0.0 0.00 0.00 0.00 59 1016.5
20260906032017 17 183 0.0 0.0 0.00 0.00 0.00 67 1016.5
20260906031541 17 183 0.0 0.0 0.00 0.00 0.00 65 1016.4
20260906031018 17 183 0.0 3.2 0.00 0.00 0.00 64 1016.3
20260906030518 17 183 0.0 4.8 0.00 0.00 0.00 64 1016.3
20260906030046 17 183 1.6 4.8 0.00 0.00 0.00 63 1016.4
20260906025518 18 183 1.6 6.4 0.00 0.00 0.00 63 1016.5
20260906025018 18 183 1.6 6.4 0.00 0.00 0.00 63 1016.4
20260906024541 18 183 3.2 6.4 0.00 0.00 0.00 62 1016.4
20260906024019 18 183 3.2 4.8 0.00 0.00 0.00 61 1016.2
20260906023520 19 183 3.2 6.4 0.00 0.00 0.00 60 1016.4
20260906023046 20 183 1.6 6.4 0.00 0.00 0.00 56 1016.3
20260906022517 19 183 1.6 4.8 0.00 0.00 0.00 53 1016.3
20260906022023 19 183 1.6 4.8 0.00 0.00 0.00 56 1016.4
20260906021539 19 183 3.2 6.4 0.00 0.00 0.00 60 1016.4
20260906021019 19 183 3.2 6.4 0.00 0.00 0.00 62 1016.4
20260906020518 19 183 3.2 8.0 0.00 0.00 0.00 63 1016.4
20260906020047 19 183 3.2 9.7 0.00 0.00 0.00 62 1016.4
20260906015517 19 186 6.4 8.0 0.00 0.00 0.00 61 1016.5
20260906014546 20 186 3.2 8.0 0.00 0.00 0.00 62 1016.6
20260906014018 20 186 4.8 8.0 0.00 0.00 0.00 61 1016.6
20260906013519 20 231 4.8 8.0 0.00 0.00 0.00 61 1016.5
20260906013044 20 265 3.2 6.4 0.00 0.00 0.00 61 1016.6
20260906012517 20 228 3.2 8.0 0.00 0.00 0.00 61 1016.6
20260906012019 20 205 4.8 8.0 0.00 0.00 0.00 60 1016.5
20260906011546 20 195 3.2 8.0 0.00 0.00 0.00 60 1016.6
20260906010517 21 219 3.2 8.0 0.00 0.00 0.00 57 1016.5
20260906010043 21 251 3.2 8.0 0.00 0.00 0.00 58 1016.5
20260906005519 21 181 3.2 8.0 0.00 0.00 0.00 59 1016.6
20260906005022 21 196 3.2 8.0 0.00 0.00 0.00 58 1016.4
20260906004549 20 178 4.8 8.0 0.00 0.00 0.00 59 1016.5
20260906004018 21 175 3.2 8.0 0.00 0.00 0.00 58 1016.5
20260906003518 21 201 3.2 6.4 0.00 0.00 0.00 56 1016.5
20260906003046 22 246 1.6 4.8 0.00 0.00 0.00 58 1016.6
20260906002516 22 246 0.0 8.0 0.00 0.00 0.00 59 1016.7
20260906002020 21 225 1.6 8.0 0.00 0.00 0.00 58 1016.8
20260906001543 22 233 3.2 8.0 0.00 0.00 0.00 59 1016.7
20260906001018 22 259 3.2 8.0 0.00 0.00 0.00 55 1016.8
20260906000523 22 279 4.8 8.0 0.00 0.00 0.00 56 1016.7
20260906000042 22 292 3.2 8.0 0.00 0.00 0.00 53 1016.9
20260905235519 23 292 3.2 8.0 0.00 0.00 0.00 55 1016.8
20260905235019 23 295 3.2 6.4 0.00 0.00 0.00 58 1016.9
20260905234547 23 237 1.6 6.4 0.00 0.00 0.00 54 1016.8
20260905234019 23 237 3.2 9.7 0.00 0.00 0.00 53 1017.0
20260905233516 23 207 4.8 9.7 0.00 0.00 0.00 49 1017.0
20260905233102 24 245 3.2 9.7 0.00 0.00 0.00 46 1017.1
20260905232517 24 267 4.8 9.7 0.00 0.00 0.00 47 1017.2